TimeAKST,TemperatureF,Dew PointF,Humidity,Sea Level PressureIn,VisibilityMPH,Wind Direction,Wind SpeedMPH,Gust SpeedMPH,PrecipitationIn,Events,Conditions,WindDirDegrees,DateUTC
12:53 AM,10.0,-8.0,44,29.60,10.0,NNE,17.3,27.6,0.00,,Overcast,20,2012-12-03 09:53:00
1:53 AM,9.0,-6.0,51,29.60,7.0,NNE,19.6,29.9,0.00,,Overcast,30,2012-12-03 10:53:00
3:53 AM,9.0,-5.1,53,29.63,5.0,NNE,20.7,29.9,0.00,Snow,Light Snow,20,2012-12-03 12:53:00
4:53 AM,8.1,-6.0,53,29.65,5.0,NNE,23.0,34.5,0.00,Snow,Light Snow,30,2012-12-03 13:53:00
5:53 AM,8.1,-9.0,46,29.65,10.0,NNE,27.6,35.7,0.00,,Overcast,30,2012-12-03 14:53:00
6:53 AM,8.1,-9.0,46,29.66,9.0,NNE,24.2,35.7,0.00,,Overcast,20,2012-12-03 15:53:00
7:53 AM,8.1,-9.9,44,29.68,10.0,NNE,24.2,34.5,0.00,,Overcast,20,2012-12-03 16:53:00
8:53 AM,8.1,-9.0,46,29.70,8.0,NNE,20.7,33.4,0.00,Snow,Light Snow,30,2012-12-03 17:53:00
9:53 AM,8.1,-9.9,44,29.72,10.0,NNE,26.5,35.7,0.00,,Overcast,30,2012-12-03 18:53:00
10:53 AM,9.0,-9.9,42,29.73,10.0,NNE,21.9,35.7,0.00,Snow,Light Snow,30,2012-12-03 19:53:00
11:53 AM,8.1,-9.0,46,29.75,10.0,NNE,24.2,36.8,0.00,,Overcast,30,2012-12-03 20:53:00
12:53 PM,8.1,-6.0,53,29.77,2.5,NE,21.9,27.6,0.00,Snow,Light Snow,40,2012-12-03 21:53:00
1:04 PM,8.6,-5.8,52,29.77,1.8,NNE,17.3,26.5,0.00,Snow,Light Snow,30,2012-12-03 22:04:00
1:14 PM,8.6,-4.0,57,29.77,1.0,NE,20.7,29.9,0.00,Snow,Light Snow,40,2012-12-03 22:14:00
1:33 PM,8.6,-4.0,57,29.76,1.8,NE,24.2,32.2,0.00,Snow,Light Snow,40,2012-12-03 22:33:00
1:38 PM,8.6,-4.0,57,29.78,2.0,NNE,19.6,33.4,0.00,Snow,Light Snow,30,2012-12-03 22:38:00
1:53 PM,9.0,-5.1,53,29.78,4.0,NE,13.8,24.2,0.00,Snow,Light Snow,40,2012-12-03 22:53:00
2:53 PM,9.0,-9.0,44,29.78,10.0,NE,16.1,31.1,0.00,,Overcast,40,2012-12-03 23:53:00
3:53 PM,9.0,-8.0,46,29.77,8.0,NE,15.0,31.1,0.00,Snow,Light Snow,40,2012-12-04 00:53:00
4:53 PM,9.0,-6.0,51,29.76,10.0,NE,23.0,33.4,0.00,,Overcast,40,2012-12-04 01:53:00
5:53 PM,9.0,-6.0,51,29.76,4.0,NE,19.6,40.3,0.00,Snow,Light Snow,40,2012-12-04 02:53:00
6:53 PM,8.1,-8.0,48,29.75,10.0,NNE,18.4,36.8,0.00,,Overcast,30,2012-12-04 03:53:00
7:53 PM,8.1,-9.9,44,29.74,10.0,NNE,21.9,39.1,0.00,,Overcast,20,2012-12-04 04:53:00
8:53 PM,8.1,-11.0,42,29.73,10.0,NNE,24.2,29.9,N/A,,Overcast,30,2012-12-04 05:53:00
9:53 PM,7.0,-11.9,42,29.70,10.0,NE,23.0,35.7,N/A,,Clear,40,2012-12-04 06:53:00
10:53 PM,7.0,-11.9,42,29.68,10.0,NNE,25.3,40.3,N/A,,Clear,20,2012-12-04 07:53:00
11:53 PM,9.0,-11.0,40,29.65,10.0,NNE,15.0,41.4,N/A,,Clear,30,2012-12-04 08:53:00